QPF
0.01 0.02 0.01 0.01 0.01 0.00 0.00 0.00 0.00 0.00 0.00 0.00 0.00 0.00 0.00 0.00 0.00 0.00 0.00 0.00 0.01 0.01 0.01 0.02 0.02 0.02 0.02 0.03 0.03 0.02 0.02 0.02 0.03 0.02 0.04 0.06 0.07 0.08 0.08 0.06 0.03 0.02 0.03
0.01 0.01 0.02 0.02 0.01 0.00 0.00 0.00 0.00 0.00 0.00 0.00 0.00 0.00 0.00 0.00 0.00 0.00 0.00 0.00 0.01 0.01 0.01 0.01 0.01 0.02 0.02 0.02 0.02 0.02 0.02 0.03 0.04 0.05 0.06 0.07 0.10 0.12 0.08 0.06 0.03 0.03 0.04
0.01 0.01 0.01 0.02 0.01 0.00 0.00 0.00 0.00 0.00 0.00 0.00 0.00 0.00 0.00 0.00 0.00 0.00 0.01 0.00 0.01 0.01 0.01 0.01 0.01 0.01 0.01 0.02 0.02 0.02 0.02 0.04 0.06 0.07 0.07 0.07 0.11 0.13 0.09 0.06 0.04 0.03 0.03
0.02 0.02 0.01 0.01 0.01 0.00 0.00 0.00 0.00 0.00 0.00 0.00 0.00 0.00 0.00 0.00 0.00 0.01 0.01 0.01 0.01 0.01 0.01 0.01 0.01 0.01 0.01 0.02 0.02 0.02 0.03 0.04 0.05 0.05 0.03 0.04 0.06 0.09 0.08 0.07 0.05 0.04 0.03
0.01 0.01 0.01 0.01 0.01 0.00 0.00 0.00 0.00 0.00 0.00 0.00 0.00 0.00 0.00 0.00 0.00 0.01 0.01 0.01 0.01 0.01 0.01 0.01 0.00 0.01 0.01 0.01 0.02 0.02 0.03 0.04 0.05 0.03 0.02 0.02 0.03 0.07 0.06 0.07 0.05 0.03 0.03
0.00 0.00 0.00 0.01 0.00 0.00 0.00 0.00 0.00 0.00 0.00 0.00 0.00 0.00 0.00 0.00 0.01 0.01 0.00 0.01 0.01 0.01 0.01 0.01 0.00 0.01 0.01 0.01 0.02 0.03 0.05 0.07 0.04 0.01 0.01 0.01 0.02 0.05 0.04 0.05 0.03 0.03 0.04
0.00 0.00 0.00 0.01 0.00 0.00 0.00 0.00 0.00 0.00 0.00 0.00 0.00 0.00 0.00 0.01 0.01 0.01 0.01 0.01 0.01 0.01 0.01 0.01 0.01 0.01 0.01 0.01 0.03 0.03 0.05 0.07 0.02 0.01 0.01 0.01 0.02 0.04 0.04 0.05 0.03 0.02 0.02
0.00 0.00 0.00 0.01 0.01 0.00 0.00 0.00 0.00 0.00 0.00 0.00 0.00 0.00 0.00 0.00 0.01 0.01 0.01 0.01 0.00 0.00 0.00 0.01 0.01 0.01 0.01 0.02 0.03 0.03 0.04 0.05 0.02 0.01 0.01 0.01 0.02 0.04 0.04 0.04 0.04 0.02 0.01
0.03 0.02 0.01 0.01 0.01 0.00 0.00 0.00 0.00 0.00 0.00 0.01 0.01 0.00 0.00 0.01 0.01 0.01 0.01 0.01 0.01 0.01 0.01 0.01 0.01 0.01 0.01 0.01 0.02 0.03 0.04 0.04 0.01 0.00 0.00 0.01 0.02 0.04 0.03 0.03 0.03 0.02 0.01
0.13 0.08 0.03 0.01 0.01 0.00 0.00 0.00 0.00 0.00 0.01 0.00 0.00 0.01 0.01 0.02 0.01 0.01 0.01 0.01 0.01 0.01 0.01 0.01 0.01 0.01 0.01 0.01 0.02 0.03 0.05 0.03 0.01 0.01 0.01 0.01 0.03 0.04 0.03 0.03 0.03 0.03 0.02
0.09 0.09 0.06 0.03 0.02 0.01 0.00 0.01 0.01 0.01 0.01 0.01 0.01 0.02 0.02 0.01 0.01 0.01 0.01 0.01 0.01 0.01 0.01 0.01 0.01 0.01 0.01 0.02 0.03 0.03 0.03 0.01 0.01 0.01 0.01 0.01 0.02 0.04 0.04 0.03 0.04 0.04 0.04
0.04 0.03 0.04 0.03 0.02 0.01 0.01 0.01 0.01 0.01 0.00 0.00 0.01 0.02 0.02 0.01 0.01 0.01 0.02 0.04 0.04 0.02 0.02 0.02 0.02 0.02 0.01 0.01 0.02 0.02 0.01 0.01 0.01 0.01 0.01 0.02 0.03 0.03 0.04 0.04 0.04 0.05 0.05
0.04 0.03 0.03 0.04 0.03 0.01 0.01 0.01 0.00 0.00 0.00 0.00 0.01 0.01 0.01 0.01 0.01 0.02 0.03 0.04 0.04 0.02 0.01 0.01 0.01 0.01 0.01 0.01 0.01 0.01 0.01 0.01 0.01 0.01 0.02 0.04 0.04 0.04 0.05 0.05 0.04 0.04 0.05
0.08 0.06 0.06 0.06 0.05 0.03 0.02 0.01 0.01 0.00 0.00 0.00 0.01 0.01 0.02 0.01 0.01 0.01 0.02 0.03 0.02 0.01 0.00 0.00 0.01 0.01 0.01 0.01 0.02 0.01 0.02 0.02 0.02 0.02 0.03 0.05 0.05 0.05 0.06 0.07 0.06 0.06 0.05
0.19 0.16 0.12 0.08 0.07 0.05 0.05 0.03 0.01 0.01 0.01 0.01 0.01 0.02 0.03 0.02 0.01 0.01 0.01 0.01 0.00 0.00 0.01 0.02 0.02 0.01 0.00 0.00 0.01 0.01 0.01 0.01 0.01 0.02 0.03 0.05 0.05 0.04 0.06 0.08 0.09 0.08 0.08
0.31 0.35 0.26 0.17 0.12 0.09 0.06 0.04 0.02 0.02 0.02 0.01 0.01 0.02 0.02 0.02 0.01 0.02 0.01 0.01 0.00 0.00 0.01 0.01 0.01 0.01 0.00 0.00 0.00 0.00 0.01 0.01 0.01 0.01 0.01 0.03 0.05 0.05 0.06 0.10 0.12 0.11 0.11
0.40 0.40 0.30 0.21 0.18 0.14 0.10 0.07 0.04 0.03 0.02 0.02 0.02 0.02 0.01 0.01 0.01 0.02 0.01 0.01 0.01 0.01 0.01 0.01 0.01 0.01 0.01 0.01 0.01 0.01 0.01 0.00 0.01 0.01 0.01 0.01 0.03 0.05 0.06 0.10 0.11 0.13 0.13
0.44 0.38 0.31 0.19 0.22 0.17 0.15 0.11 0.07 0.05 0.04 0.03 0.02 0.03 0.02 0.02 0.02 0.02 0.01 0.01 0.00 0.00 0.00 0.00 0.01 0.01 0.01 0.01 0.00 0.00 0.01 0.01 0.01 0.01 0.01 0.01 0.02 0.02 0.04 0.08 0.10 0.10 0.13
0.33 0.34 0.29 0.20 0.20 0.17 0.18 0.15 0.11 0.07 0.06 0.05 0.04 0.04 0.03 0.02 0.02 0.01 0.02 0.01 0.00 0.01 0.00 0.00 0.01 0.01 0.00 0.00 0.00 0.00 0.01 0.01 0.01 0.01 0.01 0.01 0.01 0.01 0.02 0.04 0.06 0.07 0.09
0.25 0.27 0.22 0.18 0.18 0.20 0.21 0.16 0.11 0.09 0.08 0.06 0.05 0.04 0.03 0.02 0.02 0.01 0.01 0.01 0.00 0.00 0.00 0.00 0.01 0.00 0.00 0.00 0.00 0.00 0.00 0.00 0.01 0.01 0.01 0.01 0.01 0.01 0.01 0.01 0.02 0.03 0.08
0.24 0.26 0.24 0.22 0.20 0.18 0.15 0.10 0.08 0.06 0.06 0.06 0.06 0.04 0.04 0.03 0.01 0.01 0.01 0.00 0.00 0.00 0.00 0.00 0.00 0.00 0.00 0.00 0.00 0.00 0.00 0.00 0.01 0.01 0.01 0.01 0.01 0.02 0.02 0.01 0.01 0.01 0.03
0.22 0.27 0.25 0.26 0.22 0.17 0.13 0.11 0.12 0.10 0.07 0.06 0.04 0.03 0.03 0.02 0.01 0.01 0.00 0.00 0.00 0.00 0.00 0.00 0.00 0.00 0.00 0.00 0.00 0.00 0.00 0.00 0.00 0.00 0.01 0.01 0.01 0.01 0.02 0.02 0.02 0.01 0.02
0.20 0.19 0.21 0.25 0.25 0.19 0.15 0.14 0.11 0.07 0.04 0.03 0.02 0.01 0.01 0.01 0.01 0.01 0.00 0.00 0.00 0.00 0.00 0.00 0.00 0.00 0.00 0.00 0.00 0.00 0.00 0.00 0.00 0.00 0.00 0.00 0.00 0.00 0.01 0.02 0.02 0.02 0.02
0.14 0.14 0.17 0.20 0.23 0.22 0.15 0.11 0.06 0.03 0.03 0.02 0.02 0.01 0.01 0.01 0.01 0.01 0.01 0.00 0.00 0.00 0.00 0.00 0.00 0.00 0.00 0.00 0.00 0.00 0.00 0.00 0.00 0.00 0.00 0.00 0.00 0.00 0.00 0.00 0.00 0.01 0.01
0.07 0.08 0.14 0.17 0.18 0.18 0.14 0.10 0.06 0.04 0.03 0.02 0.01 0.01 0.01 0.00 0.00 0.00 0.00 0.00 0.00 0.00 0.00 0.00 0.00 0.00 0.00 0.00 0.00 0.00 0.00 0.00 0.00 0.00 0.00 0.00 0.00 0.00 0.00 0.00 0.00 0.00 0.00
0.05 0.07 0.11 0.13 0.12 0.13 0.11 0.08 0.06 0.04 0.02 0.01 0.02 0.02 0.01 0.01 0.00 0.00 0.00 0.00 0.00 0.00 0.00 0.00 0.00 0.00 0.00 0.00 0.00 0.00 0.00 0.00 0.00 0.00 0.00 0.00 0.00 0.00 0.00 0.00 0.00 0.00 0.00
MSLP
1011.25 1011.01 1011.00 1011.19 1011.54 1011.95 1012.35 1012.67 1012.87 1012.96 1012.98 1012.98 1013.01 1013.10 1013.29 1013.56 1013.88 1014.21 1014.51 1014.75 1014.92 1015.02 1015.06 1015.07 1015.07 1015.07 1015.10 1015.15 1015.21 1015.30 1015.40 1015.52 1015.65 1015.80 1015.97 1016.16 1016.36 1016.57 1016.77 1016.96 1017.13 1017.27 1017.39
1010.82 1010.70 1010.80 1011.10 1011.53 1012.02 1012.46 1012.82 1013.05 1013.17 1013.22 1013.25 1013.31 1013.44 1013.65 1013.92 1014.22 1014.53 1014.79 1014.99 1015.12 1015.19 1015.23 1015.24 1015.25 1015.26 1015.29 1015.33 1015.39 1015.45 1015.53 1015.63 1015.75 1015.91 1016.10 1016.32 1016.56 1016.80 1017.03 1017.25 1017.44 1017.60 1017.73
1010.34 1010.34 1010.56 1010.96 1011.48 1012.04 1012.54 1012.95 1013.23 1013.40 1013.49 1013.57 1013.67 1013.83 1014.05 1014.31 1014.58 1014.83 1015.03 1015.18 1015.26 1015.31 1015.32 1015.34 1015.35 1015.38 1015.41 1015.46 1015.50 1015.55 1015.62 1015.72 1015.85 1016.02 1016.23 1016.48 1016.74 1017.01 1017.26 1017.49 1017.70 1017.88 1018.05
1009.88 1010.01 1010.33 1010.84 1011.43 1012.05 1012.61 1013.06 1013.39 1013.61 1013.76 1013.89 1014.03 1014.21 1014.43 1014.67 1014.90 1015.10 1015.24 1015.33 1015.37 1015.38 1015.39 1015.41 1015.43 1015.47 1015.52 1015.57 1015.62 1015.67 1015.74 1015.85 1015.99 1016.18 1016.42 1016.68 1016.96 1017.23 1017.49 1017.73 1017.94 1018.14 1018.33
1009.55 1009.78 1010.20 1010.77 1011.43 1012.09 1012.69 1013.17 1013.54 1013.80 1013.99 1014.16 1014.34 1014.54 1014.76 1014.98 1015.18 1015.33 1015.42 1015.46 1015.47 1015.47 1015.48 1015.50 1015.55 1015.60 1015.66 1015.72 1015.78 1015.85 1015.94 1016.06 1016.23 1016.45 1016.70 1016.97 1017.25 1017.51 1017.75 1017.96 1018.17 1018.37 1018.57
1009.40 1009.71 1010.19 1010.81 1011.50 1012.17 1012.78 1013.27 1013.65 1013.93 1014.15 1014.36 1014.56 1014.79 1015.01 1015.22 1015.40 1015.52 1015.58 1015.60 1015.61 1015.61 1015.63 1015.67 1015.74 1015.81 1015.89 1015.96 1016.04 1016.12 1016.23 1016.38 1016.57 1016.81 1017.08 1017.35 1017.60 1017.83 1018.03 1018.21 1018.38 1018.56 1018.78
1009.44 1009.80 1010.32 1010.96 1011.64 1012.30 1012.88 1013.35 1013.72 1014.01 1014.25 1014.47 1014.71 1014.95 1015.19 1015.41 1015.58 1015.69 1015.75 1015.78 1015.79 1015.81 1015.85 1015.92 1016.01 1016.11 1016.20 1016.28 1016.37 1016.46 1016.59 1016.76 1016.98 1017.24 1017.51 1017.77 1018.00 1018.18 1018.33 1018.45 1018.57 1018.73 1018.94
1009.63 1010.02 1010.56 1011.18 1011.84 1012.45 1012.99 1013.42 1013.76 1014.04 1014.28 1014.53 1014.79 1015.07 1015.33 1015.56 1015.74 1015.87 1015.94 1015.98 1016.02 1016.07 1016.14 1016.23 1016.34 1016.45 1016.55 1016.64 1016.73 1016.83 1016.97 1017.16 1017.40 1017.67 1017.94 1018.19 1018.39 1018.53 1018.62 1018.68 1018.75 1018.87 1019.06
1009.88 1010.30 1010.84 1011.45 1012.06 1012.62 1013.09 1013.48 1013.79 1014.05 1014.30 1014.57 1014.86 1015.17 1015.46 1015.72 1015.92 1016.06 1016.16 1016.22 1016.28 1016.35 1016.44 1016.55 1016.67 1016.79 1016.89 1016.97 1017.06 1017.17 1017.31 1017.51 1017.75 1018.03 1018.30 1018.54 1018.72 1018.82 1018.87 1018.89 1018.92 1019.00 1019.17
1010.10 1010.56 1011.11 1011.70 1012.27 1012.78 1013.20 1013.54 1013.82 1014.08 1014.34 1014.63 1014.96 1015.30 1015.62 1015.91 1016.13 1016.29 1016.39 1016.47 1016.53 1016.61 1016.71 1016.83 1016.95 1017.06 1017.15 1017.23 1017.31 1017.41 1017.55 1017.75 1018.00 1018.28 1018.56 1018.79 1018.96 1019.06 1019.09 1019.08 1019.08 1019.14 1019.29
1010.24 1010.75 1011.32 1011.90 1012.45 1012.92 1013.30 1013.61 1013.88 1014.14 1014.42 1014.75 1015.11 1015.48 1015.84 1016.14 1016.38 1016.54 1016.64 1016.70 1016.76 1016.83 1016.92 1017.02 1017.13 1017.24 1017.32 1017.39 1017.47 1017.56 1017.70 1017.89 1018.14 1018.42 1018.70 1018.95 1019.12 1019.23 1019.26 1019.26 1019.27 1019.32 1019.45
1010.27 1010.84 1011.45 1012.05 1012.58 1013.04 1013.40 1013.70 1013.96 1014.24 1014.55 1014.91 1015.31 1015.72 1016.10 1016.42 1016.65 1016.80 1016.88 1016.92 1016.95 1016.99 1017.06 1017.14 1017.24 1017.34 1017.42 1017.48 1017.55 1017.64 1017.78 1017.96 1018.20 1018.48 1018.76 1019.02 1019.22 1019.35 1019.41 1019.44 1019.47 1019.54 1019.67
1010.21 1010.86 1011.52 1012.13 1012.68 1013.12 1013.48 1013.78 1014.07 1014.37 1014.71 1015.11 1015.55 1015.98 1016.38 1016.70 1016.93 1017.06 1017.11 1017.12 1017.11 1017.12 1017.16 1017.22 1017.31 1017.40 1017.48 1017.56 1017.63 1017.72 1017.85 1018.02 1018.25 1018.51 1018.79 1019.05 1019.27 1019.44 1019.55 1019.62 1019.69 1019.78 1019.92
1010.12 1010.83 1011.54 1012.18 1012.73 1013.19 1013.56 1013.87 1014.17 1014.50 1014.88 1015.32 1015.78 1016.23 1016.64 1016.97 1017.19 1017.30 1017.33 1017.31 1017.27 1017.25 1017.26 1017.31 1017.39 1017.49 1017.59 1017.68 1017.76 1017.86 1017.98 1018.13 1018.33 1018.57 1018.83 1019.09 1019.32 1019.51 1019.67 1019.79 1019.90 1020.03 1020.18
1010.05 1010.81 1011.54 1012.20 1012.76 1013.23 1013.61 1013.95 1014.28 1014.63 1015.04 1015.49 1015.97 1016.44 1016.85 1017.18 1017.40 1017.51 1017.52 1017.49 1017.44 1017.41 1017.41 1017.47 1017.55 1017.67 1017.78 1017.90 1018.00 1018.10 1018.21 1018.34 1018.51 1018.70 1018.92 1019.15 1019.37 1019.58 1019.76 1019.92 1020.08 1020.23 1020.40
1010.05 1010.81 1011.54 1012.20 1012.77 1013.25 1013.65 1014.01 1014.37 1014.74 1015.17 1015.63 1016.11 1016.58 1016.99 1017.32 1017.55 1017.67 1017.70 1017.68 1017.65 1017.63 1017.65 1017.71 1017.82 1017.95 1018.10 1018.23 1018.36 1018.46 1018.56 1018.66 1018.78 1018.92 1019.08 1019.26 1019.44 1019.63 1019.82 1020.00 1020.18 1020.35 1020.53
1010.11 1010.85 1011.55 1012.19 1012.75 1013.24 1013.67 1014.07 1014.45 1014.85 1015.28 1015.74 1016.21 1016.66 1017.07 1017.40 1017.65 1017.80 1017.87 1017.89 1017.89 1017.91 1017.95 1018.04 1018.17 1018.33 1018.50 1018.66 1018.80 1018.92 1019.00 1019.07 1019.14 1019.21 1019.30 1019.40 1019.53 1019.68 1019.85 1020.02 1020.20 1020.39 1020.56
1010.22 1010.88 1011.52 1012.13 1012.70 1013.21 1013.69 1014.12 1014.55 1014.97 1015.40 1015.85 1016.29 1016.72 1017.11 1017.45 1017.71 1017.90 1018.03 1018.11 1018.17 1018.23 1018.31 1018.43 1018.59 1018.77 1018.96 1019.14 1019.29 1019.41 1019.49 1019.53 1019.55 1019.55 1019.57 1019.60 1019.65 1019.74 1019.87 1020.01 1020.18 1020.35 1020.52
1010.31 1010.87 1011.44 1012.03 1012.60 1013.16 1013.69 1014.20 1014.68 1015.13 1015.57 1015.99 1016.41 1016.80 1017.16 1017.48 1017.76 1017.99 1018.18 1018.32 1018.45 1018.56 1018.69 1018.83 1019.00 1019.19 1019.39 1019.58 1019.75 1019.88 1019.96 1019.98 1019.97 1019.93 1019.87 1019.83 1019.82 1019.84 1019.91 1020.01 1020.15 1020.30 1020.46
1010.33 1010.78 1011.29 1011.85 1012.45 1013.07 1013.69 1014.28 1014.84 1015.34 1015.79 1016.20 1016.57 1016.91 1017.23 1017.54 1017.82 1018.09 1018.32 1018.53 1018.71 1018.87 1019.03 1019.20 1019.37 1019.56 1019.76 1019.96 1020.14 1020.28 1020.37 1020.40 1020.38 1020.31 1020.22 1020.12 1020.04 1020.00 1020.01 1020.06 1020.16 1020.29 1020.42
1010.26 1010.60 1011.05 1011.60 1012.24 1012.94 1013.67 1014.38 1015.02 1015.59 1016.07 1016.46 1016.79 1017.08 1017.35 1017.63 1017.90 1018.18 1018.45 1018.71 1018.94 1019.14 1019.32 1019.49 1019.66 1019.84 1020.04 1020.23 1020.42 1020.59 1020.71 1020.77 1020.76 1020.70 1020.59 1020.46 1020.34 1020.25 1020.20 1020.21 1020.26 1020.36 1020.47
1010.10 1010.35 1010.75 1011.30 1012.00 1012.79 1013.63 1014.46 1015.21 1015.85 1016.35 1016.74 1017.03 1017.27 1017.50 1017.73 1017.99 1018.27 1018.57 1018.86 1019.12 1019.35 1019.54 1019.71 1019.87 1020.03 1020.21 1020.41 1020.61 1020.81 1020.97 1021.07 1021.11 1021.07 1020.98 1020.84 1020.70 1020.57 1020.48 1020.44 1020.46 1020.52 1020.61
1009.91 1010.10 1010.45 1011.02 1011.76 1012.63 1013.57 1014.50 1015.35 1016.05 1016.60 1016.98 1017.25 1017.45 1017.63 1017.83 1018.06 1018.35 1018.66 1018.97 1019.25 1019.50 1019.70 1019.86 1020.00 1020.14 1020.31 1020.51 1020.73 1020.95 1021.16 1021.32 1021.41 1021.42 1021.36 1021.24 1021.09 1020.94 1020.82 1020.74 1020.71 1020.74 1020.80
1009.77 1009.91 1010.24 1010.79 1011.56 1012.48 1013.49 1014.49 1015.40 1016.16 1016.74 1017.13 1017.38 1017.55 1017.70 1017.87 1018.09 1018.38 1018.70 1019.03 1019.33 1019.59 1019.80 1019.95 1020.08 1020.20 1020.36 1020.55 1020.78 1021.04 1021.29 1021.50 1021.65 1021.72 1021.69 1021.60 1021.46 1021.29 1021.15 1021.03 1020.97 1020.96 1020.99
1009.75 1009.86 1010.16 1010.69 1011.44 1012.37 1013.40 1014.43 1015.37 1016.15 1016.73 1017.13 1017.38 1017.54 1017.67 1017.83 1018.06 1018.35 1018.69 1019.04 1019.37 1019.64 1019.86 1020.01 1020.13 1020.24 1020.38 1020.57 1020.81 1021.09 1021.37 1021.63 1021.82 1021.93 1021.95 1021.88 1021.74 1021.57 1021.40 1021.26 1021.16 1021.11 1021.11
1009.90 1010.01 1010.27 1010.76 1011.46 1012.34 1013.32 1014.32 1015.23 1016.00 1016.58 1016.98 1017.22 1017.38 1017.52 1017.69 1017.93 1018.25 1018.61 1018.99 1019.35 1019.65 1019.87 1020.03 1020.15 1020.26 1020.39 1020.57 1020.81 1021.09 1021.39 1021.68 1021.90 1022.04 1022.08 1022.03 1021.90 1021.73 1021.54 1021.37 1021.24 1021.16 1021.12
Thickness
5778 5778 5777 5776 5774 5773 5772 5771 5770 5769 5768 5768 5766 5765 5764 5763 5762 5760 5759 5758 5757 5756 5755 5754 5753 5752 5751 5750 5749 5748 5747 5746 5745 5744 5743 5742 5740 5739 5738 5737 5736 5735 5734
5784 5779 5777 5775 5773 5772 5770 5769 5768 5767 5766 5765 5764 5763 5762 5760 5759 5758 5757 5756 5755 5754 5752 5751 5751 5749 5748 5748 5747 5746 5745 5744 5743 5742 5741 5740 5739 5737 5736 5735 5734 5733 5732
5784 5779 5776 5773 5771 5770 5768 5767 5765 5764 5763 5762 5762 5760 5759 5758 5757 5756 5755 5753 5752 5751 5750 5749 5748 5747 5746 5745 5744 5744 5743 5742 5741 5740 5739 5738 5737 5736 5734 5734 5732 5731 5730
5782 5778 5775 5772 5770 5768 5767 5765 5764 5762 5761 5760 5759 5758 5757 5756 5754 5753 5752 5751 5750 5749 5747 5746 5745 5744 5743 5743 5742 5741 5741 5740 5739 5738 5737 5736 5735 5734 5733 5732 5731 5729 5728
5779 5776 5773 5771 5768 5766 5765 5763 5762 5760 5759 5757 5756 5755 5754 5753 5752 5750 5749 5748 5747 5746 5745 5744 5743 5742 5741 5740 5740 5739 5739 5738 5737 5736 5735 5734 5733 5732 5731 5730 5729 5727 5726
5776 5774 5772 5769 5766 5764 5762 5761 5760 5758 5757 5755 5754 5753 5752 5750 5749 5748 5746 5745 5744 5743 5742 5741 5740 5739 5739 5738 5738 5737 5737 5736 5734 5733 5732 5731 5731 5730 5729 5728 5726 5726 5725
5774 5771 5769 5767 5764 5762 5760 5759 5758 5756 5755 5753 5752 5750 5749 5748 5746 5745 5743 5742 5742 5741 5740 5738 5737 5737 5737 5736 5736 5735 5735 5734 5732 5731 5730 5729 5728 5727 5726 5726 5724 5724 5723
5772 5768 5766 5763 5761 5759 5757 5756 5755 5754 5753 5751 5750 5748 5747 5745 5744 5742 5741 5740 5739 5738 5737 5736 5735 5734 5734 5734 5733 5733 5733 5732 5730 5729 5727 5726 5726 5725 5724 5723 5722 5721 5721
5767 5765 5762 5760 5758 5756 5755 5754 5753 5752 5751 5749 5748 5746 5745 5743 5741 5739 5738 5737 5736 5735 5734 5734 5733 5732 5732 5731 5731 5731 5730 5730 5728 5726 5725 5724 5723 5722 5722 5721 5720 5719 5719
5761 5760 5759 5757 5755 5753 5752 5751 5750 5749 5748 5747 5745 5744 5742 5740 5739 5737 5735 5734 5733 5732 5732 5732 5731 5730 5730 5729 5729 5729 5728 5727 5725 5723 5722 5721 5721 5720 5720 5719 5719 5718 5717
5756 5755 5755 5753 5752 5750 5749 5748 5747 5746 5745 5744 5743 5741 5740 5738 5736 5735 5733 5732 5731 5730 5730 5730 5729 5728 5728 5728 5727 5726 5725 5724 5723 5721 5720 5719 5719 5718 5718 5717 5717 5716 5715
5752 5751 5751 5750 5749 5747 5746 5745 5744 5743 5742 5741 5740 5739 5737 5735 5734 5732 5731 5730 5729 5728 5728 5728 5727 5726 5726 5726 5725 5724 5723 5722 5720 5719 5718 5717 5716 5716 5715 5715 5714 5714 5713
5751 5748 5747 5747 5745 5744 5743 5742 5741 5740 5739 5738 5737 5736 5735 5733 5731 5730 5729 5728 5727 5726 5726 5726 5725 5724 5724 5723 5723 5722 5721 5720 5719 5718 5717 5715 5714 5713 5713 5712 5712 5711 5711
5746 5745 5744 5743 5742 5741 5740 5740 5738 5737 5736 5735 5734 5733 5732 5730 5729 5728 5727 5725 5725 5724 5724 5723 5723 5723 5722 5722 5721 5720 5719 5718 5717 5716 5715 5714 5713 5712 5711 5710 5709 5709 5709
5740 5740 5740 5739 5738 5737 5737 5736 5736 5735 5734 5733 5732 5731 5730 5728 5727 5726 5724 5723 5723 5722 5722 5721 5721 5721 5720 5720 5719 5719 5717 5716 5715 5714 5713 5712 5711 5710 5709 5708 5707 5707 5706
5737 5736 5736 5736 5735 5734 5733 5733 5733 5733 5732 5731 5730 5729 5728 5727 5726 5724 5722 5721 5721 5720 5720 5719 5719 5719 5718 5718 5718 5717 5715 5714 5713 5712 5711 5710 5710 5709 5708 5707 5706 5705 5704
5735 5734 5734 5733 5733 5732 5731 5731 5731 5730 5729 5729 5728 5727 5726 5725 5724 5723 5721 5720 5719 5719 5718 5718 5717 5717 5716 5716 5715 5714 5713 5712 5711 5710 5709 5708 5708 5708 5707 5706 5705 5704 5703
5734 5732 5732 5732 5731 5731 5729 5729 5728 5728 5727 5727 5726 5726 5725 5724 5723 5721 5720 5718 5718 5717 5716 5716 5715 5714 5713 5713 5712 5712 5711 5710 5709 5708 5708 5707 5707 5706 5706 5705 5704 5704 5703
5733 5731 5729 5729 5729 5729 5727 5726 5726 5726 5725 5725 5724 5724 5723 5722 5722 5720 5719 5717 5717 5715 5715 5714 5712 5712 5710 5710 5710 5709 5709 5708 5708 5707 5707 5706 5705 5705 5705 5704 5704 5703 5702
5733 5730 5728 5728 5727 5726 5724 5723 5722 5722 5723 5723 5723 5723 5722 5721 5720 5719 5717 5716 5715 5714 5713 5712 5710 5709 5708 5708 5708 5706 5706 5706 5706 5705 5705 5705 5704 5704 5704 5703 5703 5702 5701
5731 5728 5727 5726 5725 5724 5722 5720 5719 5719 5720 5720 5721 5721 5721 5720 5719 5718 5716 5715 5714 5713 5712 5711 5709 5708 5706 5706 5704 5702 5702 5703 5704 5703 5703 5703 5703 5703 5703 5702 5702 5701 5700
5730 5728 5726 5725 5724 5724 5724 5722 5721 5719 5718 5719 5719 5718 5718 5718 5717 5717 5715 5714 5713 5712 5710 5710 5709 5706 5704 5704 5702 5698 5695 5697 5700 5701 5701 5702 5701 5701 5701 5701 5700 5700 5699
5730 5728 5727 5725 5724 5724 5723 5720 5718 5716 5715 5715 5715 5715 5716 5716 5715 5715 5714 5713 5712 5711 5710 5709 5708 5707 5703 5702 5702 5700 5694 5691 5693 5697 5698 5698 5699 5699 5699 5699 5699 5699 5698
5730 5729 5726 5724 5723 5723 5722 5720 5718 5716 5713 5714 5714 5714 5714 5714 5714 5714 5713 5712 5711 5710 5709 5708 5708 5707 5705 5702 5700 5700 5699 5697 5693 5691 5694 5696 5697 5697 5697 5698 5697 5697 5696
5731 5728 5726 5723 5722 5722 5721 5720 5719 5716 5715 5714 5713 5712 5712 5712 5712 5713 5712 5712 5711 5710 5709 5708 5707 5707 5706 5703 5701 5699 5697 5695 5695 5692 5690 5692 5694 5695 5696 5695 5695 5695 5695
5731 5728 5726 5723 5721 5721 5721 5720 5718 5716 5715 5713 5711 5710 5710 5710 5711 5711 5711 5711 5710 5709 5709 5708 5707 5706 5705 5704 5702 5701 5699 5697 5694 5692 5689 5688 5689 5691 5693 5693 5693 5693 5692